AEROCUBE 12A (43556 NORAD) Tracking and Keplerian Element Data

This shows tracking and keplerian element data for the satellite.

Feedback or suggestion? Click here.




ElementValue
Catalog43556
NameAEROCUBE 12A
Epoch Orbit1838
Epoch Day317.76208993
Epoch Year2018
RAAN16.6738
Inclination51.6449
Eccentricity0.0008693
Argument of Perigee18.0041
Mean Anonmoly342.1245
Mean Motion15.28017678
Decay Rate1.549E-05
L11 43556U 18046C 18317.76208993 .00001549 00000-0 68665-4 0 9990
L22 43556 51.6449 16.6738 0008693 18.0041 342.1245 15.28017678 18381

Live tracking and technical data element details for AEROCUBE 12A (NORAD 43556). AEROCUBE 12A can be tracked NOW for your location showing map with azimuth and elevation plus other details from your city location.

Track the satellite on the map from your city or location and see movement details for azimuth, elevation, latitude, longitude, range, height, and movement on the map or in text.







IsCatalogInMostPopularTable: catalog: 43556, numindb: 51
Update: records affected: 1



GetName: 43556 AEROCUBE 12A

Hit Count: updated at: Fri, 16 Nov 2018 02:54:00 GMT